Big Creek Lake Weather Center

Moon Phase Calendar



Big Creek Lake Water Level
Online Cameras

 


      

Current Conditions in Seven Hills
10/26/2020 2:18:26 PM

78°F
Feels Like 80
Clouds
Humidity
73%
Pressure
30.03"
Wind
9.2 mph (E)
Dew Point
69°F
UV Index
6/10 (High)
Visibility
6 mi

Hourly Forecast

Date & Time Mon, Oct 26
2:00 PM
Mon, Oct 26
3:00 PM
Mon, Oct 26
4:00 PM
Mon, Oct 26
5:00 PM
Mon, Oct 26
6:00 PM
Mon, Oct 26
7:00 PM
Mon, Oct 26
8:00 PM
Mon, Oct 26
9:00 PM
Mon, Oct 26
10:00 PM
Mon, Oct 26
11:00 PM
Tue, Oct 27
12:00 AM
Tue, Oct 27
1:00 AM
Tue, Oct 27
2:00 AM
Tue, Oct 27
3:00 AM
Tue, Oct 27
4:00 AM
Tue, Oct 27
5:00 AM
Tue, Oct 27
6:00 AM
Tue, Oct 27
7:00 AM
Tue, Oct 27
8:00 AM
Tue, Oct 27
9:00 AM
Tue, Oct 27
10:00 AM
Tue, Oct 27
11:00 AM
Tue, Oct 27
12:00 PM
Tue, Oct 27
1:00 PM
Tue, Oct 27
2:00 PM
Tue, Oct 27
3:00 PM
Tue, Oct 27
4:00 PM
Tue, Oct 27
5:00 PM
Tue, Oct 27
6:00 PM
Tue, Oct 27
7:00 PM
Tue, Oct 27
8:00 PM
Tue, Oct 27
9:00 PM
Tue, Oct 27
10:00 PM
Tue, Oct 27
11:00 PM
Wed, Oct 28
12:00 AM
Wed, Oct 28
1:00 AM
Wed, Oct 28
2:00 AM
Wed, Oct 28
3:00 AM
Wed, Oct 28
4:00 AM
Wed, Oct 28
5:00 AM
Wed, Oct 28
6:00 AM
Wed, Oct 28
7:00 AM
Wed, Oct 28
8:00 AM
Wed, Oct 28
9:00 AM
Wed, Oct 28
10:00 AM
Wed, Oct 28
11:00 AM
Wed, Oct 28
12:00 PM
Wed, Oct 28
1:00 PM
Condition
Clouds

Clouds

Clouds

Clouds

Clouds

Clouds

Clear

Clear

Clear

Clear

Clear

Clouds

Clear

Clear

Clouds

Clouds

Clouds

Clouds

Clouds

Clouds

Clouds

Clouds

Clouds

Clouds

Clouds

Clouds

Rain

Rain

Rain

Rain

Rain

Rain

Clouds

Clouds

Clouds

Clouds

Clouds

Clouds

Clouds

Clouds

Clouds

Clouds

Rain

Rain

Rain

Rain

Rain

Rain
Temperature 78°F80°F81°F79°F74°F71°F70°F68°F68°F67°F67°F67°F67°F66°F67°F68°F69°F68°F69°F73°F77°F80°F80°F79°F79°F81°F81°F79°F76°F74°F74°F74°F74°F74°F74°F73°F72°F73°F73°F73°F73°F73°F74°F75°F75°F74°F73°F73°F
Feels Like 83°F84°F83°F82°F76°F73°F71°F70°F69°F68°F67°F68°F67°F67°F67°F68°F70°F70°F71°F75°F80°F83°F83°F83°F83°F84°F85°F84°F81°F79°F79°F79°F79°F79°F79°F78°F77°F77°F77°F77°F77°F77°F79°F79°F79°F78°F78°F78°F
Cloudiness 40%40%29%21%15%13%0%0%0%0%5%11%0%0%15%31%45%48%56%59%51%54%63%70%99%98%87%89%87%87%98%99%99%100%100%100%78%88%93%94%95%96%100%100%100%100%100%100%
Visibility 6 mi6 mi6 mi6 mi6 mi6 mi6 mi6 mi6 mi6 mi6 mi6 mi6 mi6 mi6 mi6 mi6 mi6 mi6 mi6 mi6 mi6 mi6 mi6 mi6 mi6 mi6 mi5 mi6 mi6 mi6 mi6 mi6 mi6 mi6 mi6 mi6 mi6 mi6 mi6 mi6 mi6 mi6 mi6 mi6 mi3 mi6 mi4 mi
Precipitation 0%0%0%0%0%0%0%0%0%0%0%0%0%0%0%0%0%0%0%0%0%0%0%7%46%63%81%100%100%100%91%92%88%84%84%84%17%17%17%17%19%23%51%61%81%100%100%100%
Humidity 73%63%58%62%72%75%79%83%84%86%86%85%87%88%88%85%85%88%88%83%77%73%73%75%76%73%74%82%88%90%91%91%91%90%91%92%93%92%92%91%90%90%90%87%89%93%93%92%
Dew Point 69°F67°F65°F65°F64°F63°F63°F63°F63°F63°F63°F63°F63°F63°F63°F64°F64°F65°F66°F67°F69°F70°F71°F71°F71°F71°F72°F73°F72°F72°F71°F71°F71°F71°F71°F71°F70°F70°F70°F70°F70°F70°F71°F71°F72°F71°F71°F71°F
Pressure 30.03"30"29.97"29.97"30"30"30.03"30.06"30.06"30.06"30.06"30.06"30.06"30.03"30.03"30.03"30.03"30.03"30.06"30.06"30.06"30.06"30.06"30.03"30"29.97"29.97"29.97"29.97"30"30"30"30"30"30"29.97"29.97"29.94"29.94"29.94"29.94"29.94"29.94"29.94"29.94"29.97"29.94"29.94"
Wind Speed 4 mph3.8 mph4.8 mph4.8 mph4.6 mph4.6 mph5.1 mph5.3 mph5.6 mph6.1 mph6.5 mph7.2 mph6.8 mph6.7 mph6.9 mph7.4 mph7.1 mph6.6 mph6.7 mph7.1 mph7.8 mph8.1 mph8.2 mph7.8 mph7.5 mph7.8 mph7.8 mph6.2 mph6.1 mph5.9 mph6.2 mph6.1 mph6.3 mph6.4 mph5.9 mph5.1 mph5.4 mph6.3 mph7 mph6.5 mph6.6 mph6.4 mph5.8 mph6.9 mph7.6 mph6.4 mph5.6 mph5.3 mph
Wind
Direction
61°
ENE
53°
NE
36°
NE
26°
NNE
26°
NNE
42°
NE
39°
NE
44°
NE
41°
NE
33°
NNE
37°
NE
40°
NE
44°
NE
43°
NE
41°
NE
45°
NE
52°
NE
57°
ENE
64°
ENE
75°
ENE
90°
E
103°
ESE
111°
ESE
106°
ESE
99°
E
97°
E
107°
ESE
111°
ESE
101°
E
98°
E
100°
E
100°
E
104°
ESE
102°
ESE
103°
ESE
105°
ESE
102°
ESE
98°
E
99°
E
103°
ESE
107°
ESE
108°
ESE
111°
ESE
125°
SE
142°
SE
129°
SE
98°
E
106°
ESE

Daily Forecast

Date High Low Precip. Humidity
Today
Oct 26

Clouds
80 °F
65 °F
0%
73%
Tuesday
Oct 27

Rain
81 °F
67 °F
100%
75%
Wednesday
Oct 28

Rain
76 °F
73 °F
100%
92%
Thursday
Oct 29

Rain
81 °F
61 °F
100%
77%
Friday
Oct 30

Clear
67 °F
51 °F
0%
65%
Saturday
Oct 31

Clear
70 °F
49 °F
12%
61%
Sunday
Nov 1

Clouds
73 °F
62 °F
15%
76%
Monday
Nov 2

Clear
71 °F
57 °F
0%
57%
Tuesday
Nov 3

Clear
75 °F
55 °F
0%
59%
Wednesday
Nov 4

Clear
76 °F
57 °F
0%
56%
Thursday
Nov 5

Rain
77 °F
57 °F
27%
58%
Friday
Nov 6

Rain
70 °F
54 °F
23%
63%
Saturday
Nov 7

Clear
66 °F
45 °F
0%
56%
Sunday
Nov 8

Clear
63 °F
45 °F
0%
37%
Monday
Nov 9

Clear
69 °F
44 °F
0%
57%
Tuesday
Nov 10

Clear
72 °F
51 °F
0%
51%


Temperature 8-14 Day Outlook



Precipitation 8-14 Day Outlook




Quick Links
Big Creek Lake News
Big Creek Lake Photos
Big Creek Lake Videos




About Us
Contact Us
Site Map
Search Site
Advertise With Us
   
BigCreek.LakesOnline.com
THE BIG CREEK LAKE WEBSITE

Copyright 2020, Lakes Online
Privacy    |    Legal